Location: *
(37.5724°S, 58.0067°E)
Time: 06:37:55
(UTC+00:00)

Cosmos 1933 Rocket - Pass Details

Date: 30 January 2021
Orbit: 607 x 630 km, 82.5° (Epoch: 06 March)

Event Time Altitude Azimuth Distance (km) Brightness Sun altitude
Rises 17:36:15 0° 172° (S) 2,957 7.6 -22.7°
Reaches altitude 10° 17:39:01 10° 155° (SSE) 2,038 6.5 -23.0°
Enters shadow 17:41:25 19° 124° (SE) 1,509 5.4 -23.4°
